Wind_Speed
6 7 6 6 6 5 5 4 4 5 5 5 4 4 5 5 5 6 5 6 6 6 7 7 8 8 8 8 8 8 8 8 8 7 7 8 7 8 8 8 8 7 7 7 7 7 7 7 7
6 6 6 6 5 5 4 4 5 5 5 5 4 4 5 5 5 4 5 5 5 6 7 7 8 8 8 8 8 8 8 9 8 8 8 8 8 8 8 8 9 8 8 8 8 8 8 8 8
6 6 6 6 5 5 4 5 5 5 5 4 4 4 4 4 4 4 4 5 5 6 7 7 8 8 8 8 8 8 9 9 9 9 9 9 9 9 9 9 9 9 9 9 9 8 8 8 8
6 6 6 6 6 5 5 5 5 5 4 5 5 4 5 4 4 4 4 4 5 6 6 7 7 7 7 7 8 8 9 8 8 9 9 9 9 9 9 9 9 9 9 9 9 9 9 9 9
6 6 6 6 6 5 4 4 4 4 4 4 4 5 4 4 4 4 4 4 5 5 6 6 6 6 6 7 7 7 8 8 8 9 9 9 10 9 9 9 9 10 9 10 10 10 10 9 9
6 7 7 6 6 5 4 4 4 4 4 4 4 4 4 4 3 3 3 3 4 4 5 5 5 5 5 6 6 7 7 8 8 9 9 9 9 9 8 8 8 9 9 9 10 10 10 10 10
7 7 7 6 5 5 4 4 4 4 5 4 4 4 3 3 3 3 4 4 4 4 4 5 5 5 5 5 6 6 6 7 7 8 9 9 10 10 10 9 9 9 9 9 9 10 10 10 10
7 7 7 6 5 5 4 4 4 4 5 5 4 4 3 3 3 4 4 4 5 4 4 4 4 4 5 5 5 5 6 7 7 7 8 9 10 10 10 10 10 10 10 9 9 9 10 10 10
7 7 6 6 5 4 5 5 5 5 5 4 4 4 3 3 4 4 4 4 4 4 4 4 4 4 4 5 5 5 5 6 7 7 7 8 9 10 10 10 10 10 11 10 10 10 10 10 11
7 7 6 6 5 5 5 5 5 5 4 4 4 3 3 3 3 3 3 3 4 4 4 4 4 4 4 4 4 5 5 6 6 7 7 8 9 10 10 10 11 11 11 11 11 11 10 10 11
6 6 6 5 5 5 5 5 5 5 5 5 4 4 3 3 3 3 3 3 3 3 4 4 4 3 4 4 4 4 4 5 6 6 6 7 8 9 9 9 10 10 10 10 10 11 11 11 11
6 6 6 5 5 6 6 5 5 5 5 5 4 4 4 3 3 4 3 3 4 4 3 4 4 4 3 3 3 3 4 5 5 5 6 7 8 8 9 9 10 10 10 10 10 10 10 10 11
6 6 6 6 6 6 6 5 5 5 4 5 4 4 4 4 4 4 3 3 3 3 3 3 3 3 4 4 4 4 4 4 5 5 6 6 6 7 8 9 10 10 10 11 11 11 11 11 11
6 7 7 6 6 6 6 5 5 5 5 5 5 5 5 5 4 4 4 3 3 4 3 3 3 3 4 4 4 5 5 5 5 6 7 7 7 7 8 9 9 9 9 9 10 10 10 9 9
7 7 7 7 7 6 6 6 5 5 5 5 5 5 5 5 4 4 4 4 4 4 4 3 3 4 5 4 5 5 5 6 6 7 7 7 8 8 8 8 9 9 9 9 8 9 10 10 10
8 8 7 7 7 6 6 6 6 5 5 5 5 5 5 5 5 4 4 5 5 4 4 4 4 5 5 5 5 5 6 6 6 6 7 7 7 7 7 8 8 9 9 9 9 9 9 10 11
8 8 7 7 7 7 7 6 6 6 6 6 5 6 6 6 5 5 5 5 4 4 4 5 5 5 5 5 5 5 6 6 6 6 6 6 7 7 7 8 8 9 9 9 9 9 9 10 10
8 8 8 8 8 8 8 7 7 7 7 7 7 6 6 6 6 5 5 5 5 5 5 5 5 5 6 5 5 5 6 6 6 6 6 6 6 6 6 7 8 8 9 10 10 10 11 11 11
9 9 9 9 8 8 8 8 8 8 8 8 8 7 6 6 6 6 6 6 5 5 6 6 6 6 6 5 5 5 6 6 6 6 6 6 6 6 7 8 8 8 9 9 10 11 11 11 11
10 10 9 9 9 9 9 9 8 8 8 7 7 7 7 7 7 6 6 6 6 6 6 6 6 6 6 5 6 6 6 6 7 7 7 7 7 8 8 9 9 8 9 9 10 10 10 11 11
11 11 10 10 10 10 9 8 8 8 8 8 7 7 6 7 6 6 6 7 6 6 6 6 6 6 6 6 6 6 7 7 7 7 8 8 8 9 9 9 9 9 9 9 10 10 10 11 11
12 12 11 10 11 10 10 8 8 8 8 8 7 7 7 6 6 6 7 7 7 7 6 6 7 7 7 7 7 7 7 7 7 8 8 9 9 9 9 10 10 10 10 10 11 11 12 12 13
13 12 12 11 11 11 10 9 7 8 8 8 8 7 7 7 7 7 7 7 7 7 7 8 8 8 8 8 8 8 8 8 9 9 10 9 10 10 10 11 11 11 11 11 12 12 13 13 14
13 13 13 12 12 12 11 10 9 9 9 8 8 8 8 8 8 8 8 8 8 8 8 8 8 8 8 8 9 9 9 9 10 10 10 10 11 11 11 12 12 12 12 13 13 13 14 15 15
14 14 14 13 12 12 11 11 10 10 10 9 9 9 9 9 9 8 8 8 8 8 8 8 9 9 9 9 9 10 10 10 10 11 11 11 12 12 12 12 13 13 13 13 14 14 15 16 16
14 14 13 13 13 12 12 11 10 10 10 10 10 10 10 10 9 9 8 9 9 8 8 9 9 10 10 10 10 10 11 11 11 12 12 12 13 13 13 13 14 13 13 14 14 15 15 16 16
14 14 14 14 14 13 12 11 10 11 10 11 11 11 11 11 10 10 10 10 10 10 9 10 10 10 11 11 11 11 12 12 12 12 13 13 13 14 14 14 14 14 14 15 15 15 15 15 16
14 14 14 14 14 13 12 11 11 11 11 12 12 12 11 11 11 10 11 11 11 11 11 11 11 12 12 12 12 12 12 13 13 13 13 14 14 14 14 14 14 15 15 15 16 16 16 16 17
15 15 15 14 14 14 13 12 12 12 12 13 12 13 12 11 11 11 12 12 12 12 12 13 13 13 13 13 13 13 13 13 13 13 14 14 14 14 14 15 15 16 16 16 16 16 16 16 17
17 17 17 16 16 16 15 13 13 13 14 14 14 15 14 13 12 12 13 13 13 13 13 13 13 14 14 15 15 15 15 15 15 15 15 15 15 15 15 15 15 16 16 16 17 17 17 17 17
Wind_Direction
333 332 328 326 328 319 312 303 290 290 290 290 287 282 278 277 271 265 266 263 262 258 254 255 256 255 255 255 255 256 255 254 255 254 250 245 243 242 238 233 232 233 233 230 228 229 229 234 234
330 332 331 332 328 320 315 306 296 292 289 291 289 284 281 280 279 271 268 266 267 265 262 259 258 260 258 255 253 254 254 253 253 254 252 247 242 238 239 238 236 235 237 236 236 237 236 233 231
335 333 334 334 333 333 319 304 298 294 287 288 291 291 290 285 280 276 276 276 274 272 265 263 262 261 259 254 252 251 252 253 254 252 249 243 239 239 239 239 235 236 240 240 240 240 236 235 235
335 335 335 334 337 333 323 310 304 298 293 293 294 297 296 290 280 278 276 278 276 273 267 265 260 258 255 254 252 250 252 253 254 249 244 239 238 240 241 240 238 238 241 241 243 243 242 241 241
336 337 337 336 334 330 321 315 309 307 301 298 295 298 298 290 284 282 279 282 281 275 271 266 263 262 256 255 255 253 254 252 252 246 240 237 238 240 242 241 242 240 244 245 245 246 247 244 244
337 340 343 342 336 332 324 321 322 317 314 311 304 303 301 295 292 291 287 285 286 283 280 273 268 268 267 263 262 257 255 253 250 244 239 238 236 236 239 239 242 243 246 246 245 248 247 246 246
335 338 341 341 335 333 329 325 328 324 317 314 313 309 310 301 297 297 299 298 294 293 289 279 275 273 269 266 266 262 259 254 251 248 241 239 238 238 240 239 241 242 245 247 245 244 243 245 247
336 340 342 343 338 336 334 328 327 320 316 313 311 310 309 314 309 307 305 309 305 301 299 295 289 280 273 269 266 263 259 257 254 250 246 244 243 240 239 241 244 245 248 247 247 247 243 244 246
340 340 344 349 346 341 340 334 331 326 319 317 310 306 308 309 311 309 306 310 309 309 308 302 296 286 278 276 266 259 261 262 259 252 250 249 247 245 245 242 244 246 248 246 248 252 249 247 247
338 337 345 350 346 343 340 334 333 331 326 323 319 308 305 306 302 305 305 312 311 313 315 311 305 300 290 281 273 265 268 262 256 251 251 254 252 248 246 248 246 246 248 248 249 250 250 249 250
333 330 337 342 338 337 336 335 332 330 327 324 320 312 311 313 309 303 301 308 315 316 318 316 311 304 292 283 277 270 269 262 250 247 247 251 252 245 244 246 245 247 248 248 248 246 247 247 249
323 322 324 324 325 329 334 340 337 334 325 318 309 309 311 317 314 307 304 304 308 310 312 314 315 311 300 284 277 277 274 268 256 252 254 253 252 249 244 243 244 247 249 251 251 249 253 251 248
324 322 319 315 319 323 327 332 334 336 331 319 309 306 308 312 313 312 309 301 302 304 305 309 309 310 304 296 287 279 275 268 263 261 262 256 255 254 251 245 244 246 248 250 253 253 256 253 252
316 319 319 314 313 317 320 322 321 323 327 325 314 306 305 308 312 313 308 303 306 305 302 304 311 316 307 291 285 275 270 270 268 271 268 263 262 259 257 253 251 250 253 253 254 253 257 258 256
311 312 315 313 313 314 315 317 308 311 317 323 318 307 302 300 302 304 301 298 301 302 298 299 307 317 314 292 286 284 280 279 277 275 273 267 263 259 256 256 252 253 256 257 257 254 255 258 258
306 305 306 307 310 313 313 313 304 304 306 309 308 302 298 294 296 300 296 292 292 296 296 297 301 309 310 298 288 290 288 282 278 278 273 267 264 263 261 259 256 257 254 254 255 254 256 258 259
304 301 302 304 303 302 305 307 302 302 300 298 296 291 291 287 287 293 291 291 292 294 295 295 299 306 305 297 288 289 288 283 279 277 277 271 268 269 268 264 258 258 255 254 254 256 257 256 256
300 296 296 295 294 295 296 298 293 294 294 294 292 287 284 284 284 288 287 286 288 293 294 297 299 302 302 296 291 289 288 284 280 277 278 278 276 274 276 272 265 263 259 257 256 255 256 257 259
291 290 290 292 291 292 293 292 290 291 291 291 292 290 287 284 285 287 287 286 288 293 292 293 295 296 300 297 293 294 292 288 283 280 278 282 280 276 275 276 272 268 264 261 261 258 260 261 261
286 288 288 289 289 289 290 289 288 287 286 286 290 292 290 287 285 285 287 288 289 292 293 293 293 293 295 294 294 295 296 293 289 284 278 278 276 277 280 277 275 271 267 265 264 263 263 265 264
285 288 287 285 284 286 287 286 284 282 283 283 287 290 288 287 286 288 291 292 291 291 291 289 291 293 294 294 292 291 293 295 294 289 284 283 281 280 279 280 276 274 271 270 268 267 266 267 267
281 282 282 280 281 284 288 286 283 282 282 281 284 287 285 283 287 291 292 291 293 293 289 291 292 291 293 291 290 291 293 294 293 289 288 286 285 284 281 280 273 269 269 270 270 269 269 269 269
278 278 280 279 278 280 283 286 282 279 280 282 283 281 281 282 284 288 288 287 289 288 289 292 291 290 292 292 289 288 291 290 290 290 288 287 285 283 281 281 275 271 269 269 271 271 270 270 271
276 275 275 275 274 275 280 280 276 275 279 277 278 277 279 281 282 283 283 284 287 289 288 288 289 292 294 293 290 290 289 288 288 289 288 284 282 282 281 279 276 272 271 271 271 271 272 271 271
274 275 274 273 271 274 277 274 274 277 276 273 274 278 281 280 278 279 280 284 286 287 285 285 287 289 291 293 294 292 289 288 288 288 289 287 283 282 282 280 278 275 273 274 272 272 274 274 274
274 274 275 277 274 273 275 276 276 275 274 273 274 276 278 278 278 276 279 286 290 292 289 289 288 288 288 290 293 292 288 286 287 287 288 288 287 284 282 279 279 278 275 276 277 278 280 278 277
268 269 276 278 278 273 273 276 277 276 273 272 273 273 272 272 274 277 281 288 293 294 291 291 290 289 288 288 289 289 287 285 285 286 286 287 286 284 280 278 278 278 278 279 278 279 279 281 281
271 271 271 274 277 274 272 276 278 276 274 277 275 270 269 271 274 278 283 285 287 289 288 289 289 288 288 288 288 287 286 286 286 286 288 289 288 284 278 277 278 279 281 284 283 282 283 283 282
268 266 267 271 275 276 278 277 277 277 277 277 274 271 272 273 273 277 279 281 285 286 286 287 287 286 287 287 287 286 285 285 286 287 289 289 289 286 282 279 279 280 281 282 283 283 284 285 284
267 267 266 270 274 277 279 280 279 277 276 276 276 276 273 272 273 276 279 281 284 285 285 285 284 284 284 285 285 284 284 285 285 285 285 284 284 283 283 282 282 283 283 281 280 281 283 284 282
Height
5861 5860 5860 5861 5861 5860 5858 5859 5858 5858 5858 5858 5857 5857 5857 5857 5858 5860 5858 5856 5857 5857 5857 5857 5857 5858 5858 5858 5859 5859 5860 5860 5861 5861 5861 5862 5863 5864 5865 5866 5867 5868 5869 5870 5871 5871 5873 5873 5874
5860 5860 5861 5861 5860 5859 5859 5858 5858 5857 5857 5857 5856 5856 5856 5856 5856 5856 5855 5855 5856 5856 5856 5856 5856 5856 5856 5857 5857 5858 5858 5858 5859 5859 5859 5860 5861 5862 5863 5865 5866 5867 5867 5868 5869 5870 5871 5872 5873
5860 5860 5861 5860 5859 5859 5859 5858 5857 5857 5856 5856 5856 5856 5855 5855 5855 5855 5855 5854 5854 5854 5855 5854 5854 5855 5855 5855 5855 5856 5856 5856 5857 5857 5857 5858 5859 5860 5862 5863 5864 5865 5866 5867 5868 5869 5869 5870 5871
5861 5861 5861 5860 5858 5858 5858 5857 5856 5856 5856 5855 5855 5855 5854 5854 5854 5854 5853 5853 5853 5853 5853 5853 5853 5853 5853 5853 5853 5854 5854 5854 5854 5855 5855 5856 5858 5859 5860 5861 5862 5863 5864 5865 5866 5867 5868 5869 5870
5860 5860 5860 5859 5858 5858 5857 5856 5856 5855 5855 5855 5854 5854 5853 5853 5853 5852 5852 5852 5852 5852 5852 5852 5852 5852 5852 5852 5852 5852 5852 5852 5853 5853 5854 5855 5856 5857 5858 5859 5860 5861 5862 5863 5864 5865 5866 5867 5868
5860 5860 5859 5858 5858 5857 5857 5856 5855 5855 5854 5854 5854 5853 5853 5852 5852 5852 5851 5851 5851 5851 5851 5851 5850 5850 5850 5850 5850 5850 5851 5851 5851 5852 5852 5854 5854 5855 5856 5857 5858 5859 5860 5861 5862 5863 5864 5865 5866
5861 5859 5858 5858 5857 5857 5856 5855 5855 5854 5854 5853 5853 5853 5852 5852 5851 5851 5851 5851 5850 5850 5850 5849 5849 5849 5849 5849 5849 5849 5849 5850 5850 5851 5851 5852 5853 5854 5855 5856 5857 5858 5858 5859 5860 5861 5862 5863 5864
5859 5860 5858 5857 5857 5856 5856 5855 5854 5854 5853 5853 5852 5852 5852 5851 5851 5851 5850 5850 5849 5849 5849 5848 5848 5848 5848 5847 5847 5848 5848 5848 5848 5849 5850 5851 5851 5852 5853 5854 5855 5856 5857 5858 5858 5859 5860 5861 5862
5859 5860 5858 5857 5857 5856 5855 5855 5854 5853 5852 5852 5851 5851 5851 5851 5850 5850 5849 5849 5849 5848 5848 5847 5847 5847 5847 5846 5846 5846 5847 5847 5847 5847 5848 5849 5849 5850 5851 5852 5853 5854 5855 5856 5856 5857 5858 5859 5860
5859 5859 5858 5857 5857 5856 5855 5854 5853 5853 5852 5851 5851 5850 5850 5850 5850 5849 5849 5849 5848 5848 5847 5847 5846 5846 5845 5845 5845 5845 5845 5845 5846 5846 5846 5847 5847 5848 5849 5850 5851 5852 5853 5853 5854 5855 5856 5857 5858
5859 5859 5858 5857 5856 5855 5855 5854 5853 5852 5851 5851 5850 5850 5849 5849 5849 5849 5848 5848 5848 5847 5847 5846 5846 5845 5845 5844 5844 5844 5844 5844 5844 5845 5845 5845 5846 5847 5847 5848 5849 5849 5850 5851 5852 5853 5854 5855 5855
5859 5858 5857 5857 5856 5855 5854 5854 5853 5852 5851 5851 5850 5849 5849 5848 5848 5848 5848 5847 5847 5846 5846 5845 5845 5844 5844 5844 5843 5843 5843 5843 5843 5843 5844 5844 5844 5845 5845 5846 5847 5847 5848 5849 5850 5851 5852 5852 5853
5858 5857 5857 5856 5855 5855 5854 5853 5852 5851 5851 5850 5849 5849 5848 5848 5848 5847 5847 5846 5846 5845 5845 5845 5844 5844 5843 5843 5843 5842 5842 5842 5842 5842 5842 5843 5843 5843 5844 5844 5845 5845 5846 5847 5848 5849 5849 5850 5851
5858 5857 5856 5855 5854 5854 5853 5852 5852 5851 5850 5849 5849 5848 5848 5847 5847 5846 5846 5845 5845 5845 5844 5844 5844 5843 5842 5842 5842 5841 5841 5841 5841 5841 5841 5841 5841 5842 5842 5843 5843 5843 5844 5845 5845 5846 5847 5848 5848
5857 5856 5856 5855 5854 5853 5853 5852 5851 5850 5850 5849 5848 5847 5847 5846 5846 5845 5845 5845 5844 5844 5843 5843 5843 5842 5841 5841 5841 5840 5840 5840 5840 5840 5840 5840 5840 5840 5840 5841 5841 5842 5842 5843 5843 5844 5845 5845 5846
5856 5856 5855 5854 5853 5852 5854 5852 5851 5849 5849 5848 5847 5847 5846 5845 5845 5844 5844 5844 5843 5843 5842 5842 5842 5841 5840 5840 5840 5839 5839 5839 5839 5838 5838 5838 5838 5838 5838 5839 5839 5840 5840 5841 5841 5842 5842 5843 5843
5855 5854 5854 5853 5852 5852 5852 5851 5850 5849 5848 5847 5847 5846 5845 5844 5844 5844 5843 5842 5842 5842 5841 5841 5840 5840 5839 5839 5838 5838 5837 5837 5837 5837 5837 5836 5836 5836 5836 5837 5837 5837 5838 5838 5839 5839 5840 5840 5841
5854 5853 5852 5852 5851 5851 5850 5850 5849 5848 5847 5846 5846 5845 5844 5843 5843 5842 5842 5841 5841 5840 5840 5840 5839 5839 5838 5837 5837 5837 5836 5836 5835 5835 5835 5835 5835 5835 5835 5835 5835 5835 5835 5836 5836 5837 5837 5837 5838
5851 5851 5851 5850 5849 5849 5848 5848 5847 5846 5845 5845 5844 5844 5843 5842 5841 5841 5840 5840 5839 5839 5839 5838 5838 5837 5837 5836 5836 5835 5835 5834 5834 5834 5834 5833 5833 5833 5833 5833 5833 5833 5833 5833 5834 5834 5834 5834 5835
5850 5849 5849 5849 5847 5847 5847 5846 5846 5845 5844 5843 5843 5842 5841 5841 5840 5839 5839 5838 5838 5837 5837 5836 5836 5836 5835 5835 5834 5834 5834 5833 5833 5832 5832 5832 5831 5831 5831 5831 5830 5830 5830 5831 5831 5831 5832 5831 5832
5847 5847 5847 5846 5845 5845 5845 5845 5844 5843 5842 5842 5841 5840 5840 5839 5838 5838 5837 5837 5836 5836 5835 5835 5834 5834 5834 5833 5833 5832 5832 5831 5831 5831 5830 5830 5829 5829 5829 5828 5828 5828 5828 5828 5828 5828 5829 5828 5828
5844 5844 5844 5844 5843 5843 5843 5843 5843 5842 5841 5840 5840 5839 5838 5838 5837 5836 5836 5835 5835 5834 5834 5833 5833 5832 5832 5831 5831 5830 5830 5829 5829 5828 5828 5827 5827 5826 5826 5826 5826 5825 5825 5825 5825 5825 5825 5825 5825
5842 5841 5841 5841 5841 5841 5840 5841 5842 5840 5839 5839 5838 5837 5836 5836 5835 5835 5834 5834 5833 5832 5832 5831 5831 5830 5830 5829 5829 5828 5828 5827 5827 5826 5825 5825 5824 5824 5823 5823 5823 5822 5822 5822 5822 5822 5822 5822 5822
5838 5839 5838 5838 5838 5838 5838 5838 5839 5838 5837 5837 5836 5835 5835 5834 5833 5833 5832 5832 5831 5831 5830 5829 5829 5828 5827 5827 5826 5826 5825 5824 5824 5823 5823 5822 5821 5821 5820 5820 5819 5819 5819 5819 5819 5818 5818 5818 5818
5835 5836 5835 5835 5835 5835 5835 5835 5836 5835 5834 5834 5834 5833 5832 5832 5831 5831 5830 5830 5829 5828 5828 5827 5826 5826 5825 5824 5824 5823 5822 5822 5821 5821 5820 5819 5818 5818 5817 5816 5816 5816 5815 5815 5815 5815 5814 5814 5813
5832 5833 5833 5833 5832 5832 5832 5832 5833 5832 5831 5831 5831 5831 5830 5829 5829 5829 5828 5827 5827 5826 5825 5824 5824 5823 5823 5822 5821 5820 5820 5819 5818 5817 5816 5816 5815 5814 5813 5813 5812 5812 5811 5811 5811 5810 5810 5809 5809
5829 5829 5830 5830 5829 5829 5829 5830 5830 5829 5829 5828 5828 5828 5827 5827 5827 5826 5825 5825 5824 5823 5823 5822 5821 5820 5820 5819 5818 5817 5816 5816 5815 5814 5813 5812 5811 5810 5809 5809 5808 5808 5807 5807 5806 5806 5805 5805 5804
5826 5826 5826 5826 5825 5825 5826 5826 5827 5826 5826 5825 5825 5824 5824 5824 5823 5823 5822 5822 5821 5821 5820 5819 5818 5817 5816 5816 5815 5814 5813 5812 5811 5810 5809 5808 5807 5806 5806 5805 5804 5804 5803 5803 5802 5802 5801 5800 5800
5823 5823 5822 5822 5822 5822 5823 5826 5824 5823 5822 5821 5821 5820 5820 5820 5820 5820 5819 5818 5818 5817 5816 5815 5814 5814 5813 5812 5811 5810 5809 5808 5807 5806 5805 5804 5803 5802 5801 5801 5800 5799 5799 5798 5798 5797 5796 5796 5795
5819 5819 5819 5819 5819 5819 5819 5823 5820 5819 5818 5817 5817 5816 5816 5816 5816 5816 5815 5815 5814 5813 5812 5811 5810 5810 5809 5808 5807 5806 5805 5804 5803 5802 5801 5800 5799 5798 5797 5796 5795 5795 5794 5793 5792 5792 5791 5791 5790